This demonstration page uses our WeatherBlox Daily Observations layout. Learn more.

Left ArrowRight Arrow

Hourly Observations for August 15, 2019

Temp ( °F °C ) Dew Point ( °F °C ) Humidity (%) Winds ( mph kmh ) Pressure ( in mb ) Visibility ( mi km ) Precip ( " mm )
12:53 am 00:53 Clear 78 25.6 67 19.4 69 69 N 5 7 29.96 1015 10 16 0.00 0.00
1:53 am 01:53 Clear 77 25 66 18.9 69 69 N 6 9 29.98 1015 10 16 0.00 0.00
2:53 am 02:53 Mostly Cloudy 77 25 67 19.4 71 71 NNE 5 7 29.98 1015 10 16 0.00 0.00
3:53 am 03:53 Mostly Clear 78 25.6 64 17.8 62 62 NE 8 13 29.97 1015 10 16 0.00 0.00
4:53 am 04:53 Clear 76 24.4 62 16.7 62 62 NE 7 11 29.95 1014 10 16 0.00 0.00
5:53 am 05:53 Clear 75 23.9 60 15.6 60 60 NE 7 11 29.93 1014 10 16 0.00 0.00
6:53 am 06:53 Clear 75 23.9 58 14.4 55 55 NNE 5 7 29.97 1015 10 16 0.00 0.00
7:53 am 07:53 Sunny 74 23.3 58 14.4 57 57 SSW 6 9 29.99 1016 10 16 0.00 0.00
8:53 am 08:53 Sunny 78 25.6 58 14.4 50 50 Calm 29.99 1016 10 16 0.00 0.00
9:53 am 09:53 Sunny 82 27.8 60 15.6 47 47 SSW 3 6 29.99 1016 10 16 0.00 0.00
10:53 am 10:53 Sunny 87 30.6 60 15.6 40 40 SSE 6 9 29.99 1016 10 16 0.00 0.00
11:53 am 11:53 Sunny 91 32.8 56 13.3 31 31 SSE 9 15 29.98 1015 10 16 0.00 0.00
1:53 pm 13:53 Sunny 95 35 56 13.3 27 27 W 8 13 29.92 1013 10 16 0.00 0.00
2:53 pm 14:53 Sunny 97 36.1 54 12.2 24 24 VRB 3 6 29.89 1012 10 16 0.00 0.00
3:53 pm 15:53 Sunny 98 36.7 52 11.1 21 21 Calm 29.85 1011 10 16 0.00 0.00
4:53 pm 16:53 Sunny 100 37.8 53 11.7 21 21 S 9 15 29.83 1010 10 16 0.00 0.00
5:53 pm 17:53 Mostly Sunny 97 36.1 52 11.1 22 22 E 14 22 29.83 1010 10 16 0.00 0.00
6:53 pm 18:53 Sunny 97 36.1 52 11.1 22 22 ESE 14 22 29.81 1009 10 16 0.00 0.00
7:53 pm 19:53 Sunny 95 35 52 11.1 23 23 SE 12 19 29.80 1009 10 16 0.00 0.00
8:53 pm 20:53 Clear 92 33.3 51 10.6 25 25 SE 10 17 29.82 1010 10 16 0.00 0.00
9:53 pm 21:53 Clear 89 31.7 51 10.6 27 27 SE 8 13 29.83 1010 10 16 0.00 0.00
10:53 pm 22:53 Clear 87 30.6 52 11.1 30 30 SSE 10 17 29.85 1011 10 16 0.00 0.00
11:53 pm 23:53 Clear 84 28.9 54 12.2 36 36 SE 7 11 29.85 1011 10 16 0.00 0.00

Powered by AerisWeather